Location: Harwich
(41.6860°N, 70.0760°W)
Time: 01:50:07
(UTC-04:00)

Cosmos 2228 - Visible Passes

Search period start: 04 September 2015 00:00
Search period end: 14 September 2015 00:00
Orbit: 591 x 622 km, 82.5° (Epoch: 02 September)

Date Brightness Start Highest point End Pass type
(mag) Time Alt. Az. Time Alt. Az. Time Alt. Az.
04 Sep 3.4 20:09:52 10° SSW 20:14:11 68° W 20:18:29 10° N visible
05 Sep 4.6 20:23:45 10° SSW 20:27:48 38° WNW 20:31:50 10° N visible
06 Sep 5.6 20:38:00 10° SW 20:41:31 23° WNW 20:44:56 10° NNW visible
07 Sep 6.3 20:52:53 10° WSW 20:55:20 14° WNW 20:57:34 10° NW visible
08 Sep 6.6 05:21:39 10° NE 05:23:25 13° ENE 05:25:23 10° E visible
08 Sep 3.0 19:26:31 10° S 19:30:50 86° E 19:35:08 10° N visible
09 Sep 6.1 05:34:04 10° NNE 05:37:15 21° ENE 05:40:31 10° ESE visible
09 Sep 3.9 19:40:11 10° SSW 19:44:24 53° W 19:48:36 10° N visible
10 Sep 5.1 05:47:05 10° N 05:50:58 34° ENE 05:54:53 10° SE visible
10 Sep 5.1 19:54:12 10° SW 19:58:03 31° WNW 20:01:52 10° NNW visible
11 Sep 6.1 20:08:40 10° WSW 20:11:48 19° WNW 20:14:49 10° NNW visible
12 Sep 6.7 20:24:04 10° W 20:25:39 11° WNW 20:26:59 10° NW visible
13 Sep 6.4 04:51:14 10° NNE 04:53:43 15° ENE 04:56:23 10° ESE visible
